Overview Statistics Trail Chart Weather Telemetry Raw packets
 

This is the latest recevied weather packets stored in our database for station/object N0QV. If no packets are shown the sender has not sent any weather packets the latest 10 day(s).

<< 76 77 78 79 80 81 82 >>
Time Temp. Humidity Pressure Rain* Wind** Luminosity Snow
1788124291 31.67° C 62% 1007.9 hPa 0 mm - 453 W/m² -
1788123986 31.67° C 61% 1007.9 hPa 0 mm - 455 W/m² -
1788123686 32.22° C 61% 1007.8 hPa 0 mm - 462 W/m² -
1788123382 32.22° C 60% 1007.9 hPa 0 mm - 508 W/m² -
1788123079 32.22° C 60% 1007.9 hPa 0 mm - 594 W/m² -
1788122778 32.22° C 62% 1007.7 hPa 0 mm - 359 W/m² -
1788122477 32.22° C 60% 1007.8 hPa 0 mm - 287 W/m² -
1788122174 31.67° C 63% 1007.7 hPa 0 mm - 307 W/m² -
1788121874 31.11° C 62% 1007.8 hPa 0 mm - 475 W/m² -
1788121573 31.67° C 62% 1007.8 hPa 0 mm - 232 W/m² -
1788121269 31.67° C 62% 1007.6 hPa 0 mm - 584 W/m² -
1788120968 31.67° C 62% 1007.7 hPa 0 mm - 579 W/m² -
1788120663 31.67° C 63% 1007.7 hPa 0 mm - 582 W/m² -
1788120359 31.67° C 62% 1007.8 hPa 0 mm - 538 W/m² -
1788120057 32.22° C 62% 1007.8 hPa 0 mm - 536 W/m² -
1788119753 31.67° C 63% 1007.7 hPa 0 mm - 543 W/m² -
1788119451 32.22° C 61% 1007.6 hPa 0 mm - 582 W/m² -
1788119151 32.78° C 60% 1007.8 hPa 0 mm - 592 W/m² -
1788118845 32.22° C 60% 1007.7 hPa 0 mm - 610 W/m² -
1788118544 31.11° C 65% 1007.8 hPa 0 mm - 615 W/m² -
1788118240 31.11° C 64% 1007.9 hPa 0 mm - 249 W/m² -
1788117936 31.11° C 65% 1008.2 hPa 0 mm - 442 W/m² -
1788117635 31.67° C 64% 1007.9 hPa 0 mm - 145 W/m² -
1788117331 31.67° C 64% 1007.8 hPa 0 mm - 594 W/m² -
1788117025 31.11° C 65% 1008 hPa 0 mm - 400 W/m² -

* Rain latest hour (hover to see other rain measurements)
** Current wind speed in m/s (hover to see current wind gust speed)